• In Uzbekistan
  • List of Countries
  • For 7 days
  • Water Temperature
  • Weather Map
  • Weather Widgets
  • user-avatar
    Login

    Hourly Weather San Fernando de Apure

    Today, 18 August, Sunday

    Time Temperature Precipitation Wind Pressure Humidity
    00:00 +24°C° 0 mm 1 mps 756 mmHg 96%
    01:00 +23°C° 0 mm 1 mps 756 mmHg 96%
    02:00 +23°C° 0 mm 1 mps 756 mmHg 96%
    03:00 +23°C° 0 mm 1 mps 756 mmHg 95%
    04:00 +23°C° 0 mm 1 mps 756 mmHg 94%
    05:00 +21°C° 0 mm 0 mps 756 mmHg 93%
    06:00 +22°C° 0 mm 0 mps 756 mmHg 92%
    07:00 +22°C° 0 mm 0 mps 756 mmHg 91%
    08:00 +23°C° 0 mm 0 mps 757 mmHg 91%
    09:00 +25°C° 0 mm 0 mps 757 mmHg 84%
    10:00 +29°C° 0 mm 1 mps 757 mmHg 77%
    11:00 +31°C° 0 mm 1 mps 757 mmHg 71%
    12:00 +31°C° 0 mm 1 mps 756 mmHg 69%
    13:00 +32°C° 0 mm 1 mps 756 mmHg 66%
    14:00 +33°C° 0 mm 1 mps 755 mmHg 64%
    15:00 +32°C° 0 mm 1 mps 754 mmHg 67%
    16:00 +30°C° 0 mm 0 mps 754 mmHg 70%
    17:00 +29°C° 0 mm 0 mps 753 mmHg 73%
    18:00 +28°C° 0 mm 0 mps 753 mmHg 76%
    19:00 +26°C° 0 mm 0 mps 754 mmHg 80%
    20:00 +25°C° 0 mm 0 mps 754 mmHg 84%
    21:00 +24°C° 0 mm 0 mps 755 mmHg 85%
    22:00 +24°C° 0 mm 0 mps 755 mmHg 87%
    23:00 +23°C° 0 mm 0 mps 756 mmHg 88%

    Tomorrow, 19 August, Monday

    Time Temperature Precipitation Wind Pressure Humidity
    00:00 +23°C° 0.1 mm 0 mps 755 mmHg 89%
    01:00 +23°C° 0.1 mm 0 mps 755 mmHg 91%
    02:00 +23°C° 0.1 mm 0 mps 754 mmHg 92%
    03:00 +23°C° 0.5 mm 0 mps 754 mmHg 93%
    04:00 +24°C° 0.5 mm 1 mps 754 mmHg 95%
    05:00 +24°C° 0.5 mm 1 mps 754 mmHg 96%
    06:00 +25°C° 0.7 mm 1 mps 755 mmHg 96%
    07:00 +25°C° 0.7 mm 1 mps 756 mmHg 96%
    08:00 +26°C° 0.7 mm 1 mps 756 mmHg 96%
    09:00 +27°C° 0.8 mm 1 mps 757 mmHg 93%
    10:00 +28°C° 0.8 mm 2 mps 757 mmHg 89%
    11:00 +29°C° 0.8 mm 2 mps 757 mmHg 85%
    12:00 +29°C° 1.6 mm 2 mps 756 mmHg 85%
    13:00 +29°C° 1.6 mm 2 mps 756 mmHg 86%
    14:00 +29°C° 1.6 mm 3 mps 755 mmHg 86%
    15:00 +29°C° 0.3 mm 2 mps 755 mmHg 85%
    16:00 +29°C° 0.3 mm 2 mps 754 mmHg 85%
    17:00 +29°C° 0.3 mm 2 mps 754 mmHg 85%
    18:00 +28°C° 0.1 mm 1 mps 754 mmHg 88%
    19:00 +27°C° 0.1 mm 1 mps 754 mmHg 91%
    20:00 +25°C° 0.1 mm 1 mps 755 mmHg 95%
    21:00 +25°C° 0 mm 1 mps 755 mmHg 95%
    22:00 +25°C° 0 mm 1 mps 756 mmHg 95%
    23:00 +25°C° 0 mm 1 mps 756 mmHg 95%

    Day after tomorrow, 20 August, Tuesday

    Time Temperature Precipitation Wind Pressure Humidity
    00:00 +25°C° 0 mm 1 mps 756 mmHg 95%
    01:00 +24°C° 0 mm 1 mps 755 mmHg 95%
    02:00 +24°C° 0 mm 1 mps 755 mmHg 95%
    03:00 +24°C° 1.1 mm 1 mps 755 mmHg 96%
    04:00 +24°C° 1.1 mm 1 mps 755 mmHg 97%
    05:00 +24°C° 1.1 mm 1 mps 755 mmHg 97%
    06:00 +22°C° 0.6 mm 0 mps 755 mmHg 97%
    07:00 +22°C° 0.6 mm 0 mps 756 mmHg 97%
    08:00 +23°C° 0.6 mm 0 mps 756 mmHg 97%
    09:00 +23°C° 0 mm 0 mps 757 mmHg 95%
    10:00 +24°C° 0 mm 0 mps 757 mmHg 93%
    11:00 +25°C° 0 mm 0 mps 757 mmHg 92%
    12:00 +26°C° 0 mm 0 mps 756 mmHg 88%
    13:00 +26°C° 0 mm 0 mps 756 mmHg 85%
    14:00 +29°C° 0 mm 1 mps 755 mmHg 81%
    15:00 +29°C° 0 mm 1 mps 754 mmHg 81%
    16:00 +29°C° 0 mm 1 mps 754 mmHg 81%
    17:00 +29°C° 0 mm 1 mps 753 mmHg 81%
    18:00 +28°C° 0.1 mm 1 mps 754 mmHg 85%
    19:00 +27°C° 0.1 mm 1 mps 754 mmHg 89%
    20:00 +24°C° 0.1 mm 0 mps 755 mmHg 93%
    21:00 +24°C° 0.2 mm 0 mps 755 mmHg 93%
    22:00 +23°C° 0.2 mm 0 mps 756 mmHg 93%
    23:00 +23°C° 0.2 mm 0 mps 756 mmHg 93%

    21 August, Wednesday

    Time Temperature Precipitation Wind Pressure Humidity
    00:00 +23°C° 0 mm 0 mps 756 mmHg 94%
    01:00 +22°C° 0 mm 0 mps 755 mmHg 95%
    02:00 +22°C° 0 mm 0 mps 755 mmHg 95%
    03:00 +22°C° 0.6 mm 0 mps 755 mmHg 96%
    04:00 +24°C° 0.6 mm 1 mps 755 mmHg 96%
    05:00 +24°C° 0.6 mm 1 mps 755 mmHg 97%
    06:00 +24°C° 0.2 mm 1 mps 756 mmHg 96%
    07:00 +25°C° 0.2 mm 1 mps 756 mmHg 96%
    08:00 +26°C° 0.2 mm 1 mps 757 mmHg 95%
    09:00 +27°C° 0 mm 1 mps 757 mmHg 90%
    10:00 +28°C° 0 mm 1 mps 757 mmHg 85%
    11:00 +30°C° 0 mm 1 mps 757 mmHg 80%
    12:00 +30°C° 0 mm 1 mps 756 mmHg 77%
    13:00 +31°C° 0 mm 1 mps 755 mmHg 73%
    14:00 +32°C° 0 mm 1 mps 755 mmHg 70%
    15:00 +32°C° 0.4 mm 1 mps 754 mmHg 73%
    16:00 +31°C° 0.4 mm 1 mps 754 mmHg 75%
    17:00 +31°C° 0.4 mm 1 mps 753 mmHg 78%
    18:00 +28°C° 0.9 mm 0 mps 754 mmHg 82%
    19:00 +26°C° 0.9 mm 0 mps 754 mmHg 86%
    20:00 +25°C° 0.9 mm 0 mps 755 mmHg 90%
    21:00 +24°C° 1 mm 0 mps 755 mmHg 91%
    22:00 +24°C° 1 mm 0 mps 755 mmHg 92%
    23:00 +24°C° 1 mm 0 mps 755 mmHg 93%

    22 August, Thursday

    Time Temperature Precipitation Wind Pressure Humidity
    00:00 +23°C° 0.1 mm 0 mps 755 mmHg 94%
    01:00 +23°C° 0.1 mm 0 mps 755 mmHg 94%
    02:00 +25°C° 0.1 mm 1 mps 754 mmHg 95%
    03:00 +25°C° 0.1 mm 1 mps 754 mmHg 95%
    04:00 +25°C° 0.1 mm 1 mps 755 mmHg 95%
    05:00 +25°C° 0.1 mm 1 mps 755 mmHg 95%
    06:00 +25°C° 0.9 mm 1 mps 755 mmHg 95%
    07:00 +26°C° 0.9 mm 1 mps 756 mmHg 95%
    08:00 +26°C° 0.9 mm 1 mps 756 mmHg 95%
    09:00 +27°C° 1 mm 1 mps 756 mmHg 92%
    10:00 +29°C° 1 mm 2 mps 756 mmHg 89%
    11:00 +30°C° 1 mm 2 mps 756 mmHg 85%
    12:00 +31°C° 1.9 mm 2 mps 755 mmHg 82%
    13:00 +31°C° 1.9 mm 1 mps 755 mmHg 79%
    14:00 +32°C° 1.9 mm 1 mps 754 mmHg 76%
    15:00 +32°C° 0.5 mm 1 mps 754 mmHg 76%
    16:00 +32°C° 0.5 mm 1 mps 753 mmHg 76%
    17:00 +30°C° 0.5 mm 0 mps 753 mmHg 77%
    18:00 +30°C° 0.8 mm 1 mps 753 mmHg 81%
    19:00 +28°C° 0.8 mm 1 mps 754 mmHg 85%
    20:00 +27°C° 0.8 mm 1 mps 754 mmHg 90%
    21:00 +27°C° 0.4 mm 1 mps 755 mmHg 91%
    22:00 +26°C° 0.4 mm 1 mps 755 mmHg 91%
    23:00 +26°C° 0.4 mm 1 mps 756 mmHg 92%

    23 August, Friday

    Time Temperature Precipitation Wind Pressure Humidity
    00:00 +24°C° 0.4 mm 0 mps 755 mmHg 92%
    01:00 +24°C° 0.4 mm 0 mps 755 mmHg 93%
    02:00 +23°C° 0.4 mm 0 mps 754 mmHg 93%
    03:00 +23°C° 2 mm 0 mps 754 mmHg 94%
    04:00 +25°C° 2 mm 1 mps 755 mmHg 96%
    05:00 +25°C° 2 mm 1 mps 755 mmHg 97%
    06:00 +25°C° 2.4 mm 1 mps 755 mmHg 97%
    07:00 +25°C° 2.4 mm 1 mps 756 mmHg 97%
    08:00 +25°C° 2.4 mm 1 mps 756 mmHg 97%
    09:00 +26°C° 3.2 mm 1 mps 757 mmHg 96%
    10:00 +26°C° 3.2 mm 1 mps 757 mmHg 95%
    11:00 +27°C° 3.2 mm 1 mps 757 mmHg 94%
    12:00 +27°C° 1.2 mm 2 mps 757 mmHg 93%
    13:00 +27°C° 1.2 mm 3 mps 756 mmHg 93%
    14:00 +27°C° 1.2 mm 4 mps 756 mmHg 92%
    15:00 +27°C° 0.1 mm 3 mps 755 mmHg 90%
    16:00 +27°C° 0.1 mm 2 mps 755 mmHg 88%
    17:00 +28°C° 0.1 mm 1 mps 754 mmHg 86%
    18:00 +27°C° 0 mm 1 mps 755 mmHg 89%
    19:00 +26°C° 0 mm 1 mps 755 mmHg 92%
    20:00 +23°C° 0 mm 0 mps 755 mmHg 95%
    21:00 +23°C° 0 mm 0 mps 756 mmHg 94%
    22:00 +23°C° 0 mm 0 mps 756 mmHg 93%
    23:00 +23°C° 0 mm 0 mps 756 mmHg 93%
    Show more